Tracking 19795 objects as of 18-Jul-2019
HD Live streaming from Space Station
objects crossing your sky now

FENGYUN 1C DEB

Track FENGYUN 1C DEB now!
10-day predictions


NORAD ID: 33713
Int'l Code: 1999-025DHA
Perigee: 554.3 km
Apogee: 794.1 km
Inclination: 99.0 °
Period: 98.1 minutes
Semi major axis: 7045 km
RCS: 0.0118 m2 (small)
Launch date: May 10, 1999
Source: People's Republic of China (PRC)
Launch site: Taiyaun Space Center, China (TSC)

Note: This is SATELLITE DEBRIS
aabbcc
Your satellite tracking list
Your tracking list is empty




NASA's NSSDC Master Catalog

Two Line Element Set (TLE):
1 33713U 99025DHA 19198.18737874  .00000800  00000-0  12235-3 0  9999
2 33713  99.0432 283.2934 0170216 271.0973  87.0732 14.68128546608133
Source of the keplerian elements: AFSPC